If you wish to contribute or participate in the discussions about articles you are invited to join SKYbrary as a registered user

 Actions

Lake Hood Seaplane Base

From SKYbrary Wiki

PALH
Airport
ICAO: PALH – IATA: LHD
Summary
Name Lake Hood Seaplane Base
Region North America
Territory Alaska US.gif
Location , Alaska
Serving Anchorage
Elevation 21.641 m
71 ft
71 ft21.641 m
Type seaplane base
Coordinates 61° 11' 11.90" N, 149° 57' 55.41" W
Runways
Designator Length Width Surface ROPS
E/W 1384 m4,540.682 ft
57 m187.008 ft
WATER /
N/S 588 m1,929.134 ft
61 m200.131 ft
WATER /
NW/SE 418 m1,371.391 ft
46 m150.919 ft
WATER /


METAR
Observation PALH 161453Z 01005KT 10SM OVC036 01/M07 A2929 RMK AO2 SLP919 T00061067 58012
Station Anchorage, Lake Hood Seaplane Base
Date/Time 16 October 2019 14:53:00
Wind direction 10°
Wind speed 05 kts
Lowest cloud amount overcast
Temperature 0.6°C
Dew point
Humidity 58%
QNH hPa
Weather condition n/a